Location: Mascot Post Office (historical)
(40.2645°N, 99.5462°W)
Time: 01:24:18
(UTC+00:00)

Cosmos 1513 Rocket - Pass Details

Date: 14 July 2020
Orbit: 940 x 1007 km, 82.9° (Epoch: 14 August)

Event Time Altitude Azimuth Distance (km) Brightness Sun altitude
Exits shadow 09:48:09 13° 185° (S) 2,493 6.2 -14.8°
Maximum altitude 09:53:48 90° 267° (W) 973 4.5 -14.0°
Drops below altitude 10° 10:00:06 10° 7° (N) 2,740 7.6 -13.2°
Sets 10:02:38 0° 8° (N) 3,701 8.4 -12.8°
